Follow iAlert.com on twitter @ialertcom
Search For Active Alerts in Your Area  
  Hi Guest:  [ Sign-up / Services ] [ Login ]

Current weather by "City, St" or "zip code"  
 

Advertise Here

Current Conditions: Bellaire, Antrim County Airport, MI

Overcast


33.0 F

Last Updated on Nov 23 2017, 11:55 pm EST
Humidity: 87%
Wind Speed: S 3.5 mph
Barometer 29.81 in
Dewpoint: 29.1 F
Visibility: 10.00 mi
Precip: --
Heat Index: NA
Wind Chill: NA
Current conditions at:

Bellaire, Antrim County Airport, MI (KACB)

Lat: 44.98 Lon: 85.198

Local Radar Image active severe weather and emergency alerts image image weather storm and storm spotter reports image weather observation monitoring service image
Local
Radar
Active
Alerts
Storm Reports Obs
Monitoring

iAlert Weather and Emergency Alert Notification Services:


ialert severe weather and emergency alerts by text message and email ialert daily weather forecast by email and text message service ialert real-time weather-observation monitoring and alert notification service ialert storm report monitoring alert notification

Observation History for Bellaire, Antrim County Airport, MI


Time Wind
(mph)
Vis
(mi)
Weather Precip (in) Temperature (F) Relative
Humidity
Wind
Chill
(°F)
Heat
Index
(°F)
Pressure
Air Dwpt altimeter
(in)
sea level
(mb)
11:55 pm EST S 3.5 10.00 Overcast -- 33.0 29.1 87% NA NA 29.81 M
10:55 pm EST S 5.8 10.00 Fair -- 32.0 28.4 87% 26 NA 29.85 M
9:55 pm EST N 0.0 10.00 Fair -- 29.0 27.9 94% NA NA 29.86 M
8:55 pm EST N 0.0 10.00 Fair -- 32.0 28.6 88% NA NA 29.88 M
7:55 pm EST N 0.0 10.00 Fair -- 31.0 28.6 92% NA NA 29.89 M
6:55 pm EST S 3.5 10.00 Fair -- 33.0 28.8 85% NA NA 29.89 M
5:55 pm EST N 0.0 10.00 Fair -- 36.0 28.4 74% NA NA 29.88 M
4:55 pm EST N 0.0 10.00 Mostly Cloudy -- 37.0 28.9 72% NA NA 29.88 M
3:55 pm EST W 5.8 10.00 Overcast -- 38.0 29.1 70% 34 NA 29.88 M
2:55 pm EST W 5.8 10.00 Overcast -- 38.0 29.1 70% 34 NA 29.86 M
1:55 pm EST SW 10.4 10.00 Overcast -- 38.0 28.2 67% 31 NA 29.85 M
12:55 pm EST SW 9.2 10.00 Overcast -- 37.0 29.1 72% 30 NA 29.88 M
11:55 am EST SW 4.6 10.00 Overcast -- 36.0 29.3 77% 32 NA 29.89 M
10:55 am EST SW 6.9 10.00 Overcast -- 34.0 30.2 87% 28 NA 29.92 M
9:55 am EST S 5.8 10.00 Overcast -- 32.0 31.1 96% 26 NA 29.93 M
8:55 am EST SW 4.6 10.00 Overcast -- 32.0 32.0 100% 27 NA 29.97 M
7:55 am EST SW 4.6 7.00 Light Snow -- 32.0 32.0 99% 27 NA 29.97 M
6:55 am EST SW 5.8 10.00 Overcast -- 32.0 30.0 92% 26 NA 29.97 M
5:55 am EST S 4.6 10.00 Overcast -- 32.0 28.2 85% 27 NA 29.98 M
4:55 am EST S 3.5 10.00 Overcast -- 31.0 26.6 83% NA NA 29.99 M
3:55 am EST S 3.5 10.00 Mostly Cloudy -- 28.0 24.4 86% NA NA 30.01 M
2:55 am EST S 4.6 10.00 Partly Cloudy -- 27.0 23.2 86% 22 NA 30.04 M
1:55 am EST SW 3.5 10.00 Fair -- 30.0 24.3 80% NA NA 30.04 M
12:55 am EST S 8.1 10.00 Overcast -- 30.0 24.4 79% 22 NA 30.07 M

Regional Weather Observation


Bellaire, Antrim County Airport, MI (KACB)

Overcast
33.0 F

Beaver Island, Beaver Island Airport, MI (KSJX)

Overcast
40.0 F

Harbor Springs, Harbor Springs Airport, MI (KMGN)

Overcast
33.0 F

Cherry Capital Airport, MI (KTVC)

A Few Clouds
33.0 F

Gaylord Regional Airport, MI (KGLR)

Fair
30.0 F

Pellston Regional Airport of Emmet County, MI (KPLN)

Overcast
35.0 F

Advertise Here